Home   Weather   Hamilton   Past weeks
Flag for Bermuda

Past Weather in Hamilton, Bermuda — Yesterday and Last 2 Weeks

Now
63 °F

Scattered showers. Partly sunny.


Feels Like: 63 °F
Forecast: 68 / 61 °F
Wind: 26 mph from East

Location: Bermuda

Current Time: Mar 21, 2019 at 9:04:33 am

Latest Report: Mar 21, 2019 at 7:55 am


Visibility: N/A

Pressure: 29.95 "Hg

Humidity: 77%

Dew Point: 55 °F

Location of HamiltonLocation

Past Weather in Hamilton — Graph

°F

Hamilton Temperature Yesterday

Maximum temperature yesterday: 63 °F (at 12:48 am)
Minimum temperature yesterday: 59 °F (at 10:55 pm)
Average temperature yesterday: 61 °F

High & Low Weather Summary for the Past Weeks

 TemperatureHumidityPressure
High72 °F (Mar 6, 6:14 am)100% (Mar 6, 6:55 am)30.36 "Hg (Mar 6, 6:55 am)
Low55 °F (Mar 9, 1:55 am)48% (Mar 6, 11:55 pm)29.80 "Hg (Mar 6, 6:14 am)
Average63 °F76%30.12 "Hg
* Reported Mar 6 6:14 am — Mar 21 7:55 am, Hamilton. Weather by CustomWeather, © 2019

Note: Actual official high and low records may vary slightly from our data, if they occured in-between our weather recording intervals... More about our weather records

Advertising

Hamilton Weather History for the Previous 24 Hours

Scroll right to see more
 ConditionsComfort  
Time TempWeatherWind HumidityBarometerVisibility
7:55 am
Thu, Mar 21
63 °FScattered showers. Partly sunny.26 mph77%29.95 "HgN/A
7:08 am61 °FLight rain. Mostly cloudy.23 mph88%29.95 "HgN/A
6:55 am61 °FLight rain. Overcast.24 mph88%29.95 "HgN/A
5:55 am61 °FLight rain. Mostly cloudy.26 mph88%29.95 "HgN/A
5:28 am61 °FLight rain. Overcast.29 mph83%29.95 "HgN/A
4:55 am61 °FLight rain. Mostly cloudy.22 mph88%29.98 "HgN/A
4:36 am61 °FLight rain. Overcast.25 mph83%29.98 "HgN/A
3:55 am59 °FLight rain. Mostly cloudy.26 mph88%29.98 "Hg6 mi
3:24 am59 °FLight rain. Overcast.25 mph88%29.98 "HgN/A
2:55 am59 °FRain. Mostly cloudy.22 mph88%30.04 "Hg4 mi
2:38 am59 °FLight rain. Mostly cloudy.23 mph88%30.04 "Hg6 mi
1:57 am59 °FRain. Mostly cloudy.18 mph88%30.07 "Hg3 mi
12:55 am61 °FLight rain. Overcast.18 mph83%30.09 "HgN/A
11:55 pm
Wed, Mar 20
59 °FLight rain. Mostly cloudy.21 mph88%30.09 "HgN/A
10:55 pm59 °FLight rain. Mostly cloudy.22 mph82%30.09 "HgN/A
9:55 pm61 °FLight rain. Mostly cloudy.23 mph83%30.09 "HgN/A
8:55 pm61 °FRain. Overcast.18 mph88%30.09 "Hg3 mi
8:25 pm63 °FRain. Mostly cloudy.21 mph83%30.09 "Hg4 mi
7:55 pm63 °FLight rain. Overcast.24 mph77%30.09 "HgN/A
7:03 pm63 °FLight rain. Mostly cloudy.24 mph88%30.07 "HgN/A
5:55 pm63 °FDrizzle. Fog.24 mph83%30.07 "Hg5 mi
3:55 pm61 °FLight rain. Fog.21 mph94%30.07 "Hg3 mi
3:33 pm61 °FRain. Fog.20 mph88%30.07 "Hg2 mi
3:18 pm61 °FLight rain. Fog.21 mph94%30.07 "Hg4 mi
3:05 pm61 °FRain. Fog.17 mph94%30.07 "Hg2 mi
2:55 pm61 °FRain. Fog.15 mph88%30.09 "Hg4 mi
2:22 pm61 °FLight rain. Fog.17 mph88%30.09 "Hg5 mi
1:55 pm63 °FLight rain. Fog.18 mph83%30.09 "Hg5 mi
12:55 pm63 °FLight rain. Fog.21 mph83%30.09 "Hg6 mi
12:15 pm63 °FLight rain. Fog.18 mph83%30.09 "Hg6 mi
11:55 am63 °FDrizzle. Fog.20 mph88%30.12 "Hg6 mi
10:55 am63 °FDrizzle. Fog.18 mph83%30.12 "Hg6 mi
10:13 am61 °FLight rain. Fog.20 mph88%30.12 "Hg5 mi
9:55 am61 °FLight rain. Cloudy.20 mph88%30.12 "HgN/A
Weather by CustomWeather, © 2019

See weather overview